Location: Eexterzandvoort
(53.0303°N, 6.7884°E)
Time: 20:56:11
(UTC+00:00)

PSLV R/B - Pass Details

Date: 19 May 2025
Orbit: 402 x 431 km, 97.7° (Epoch: 15 June)

Event Time Altitude Azimuth Distance (km) Brightness Sun altitude
Exits shadow 20:53:50 12° 170° (S) 1,405 5.4 -9.6°
Maximum altitude 20:56:49 75° 255° (WSW) 444 3.4 -9.9°
Drops below altitude 10° 21:00:05 10° 343° (NNW) 1,531 7.4 -10.2°
Sets 21:02:08 0° 345° (NNW) 2,410 8.6 -10.4°
